Murren, Switzerland 16 day weather forecast

Slopes altitude range 945 m - 2970m

Number of lifts: 44 Pistes: 213km

In some cases the lift and piste totals shown are for the ski domain (e.g. Three Valleys) rather than individual resort (e.g. Courchevel)

Overview

The 16 day weather forecast is fully updated 4 times every day.

    • Sat 20 APR 2019
    • Sat 20
    • -3C 3C
    • Sun 21 APR 2019
    • Sun 21
    • -2C 4C
    • Mon 22 APR 2019
    • Mon 22
    • -1C 5C
    • Tue 23 APR 2019
    • Tue 23
    • -1C 3C
    • Wed 24 APR 2019
    • Wed 24
    • 0C 3C
    • Thu 25 APR 2019
    • Thu 25
    • 0C 2C
    • Fri 26 APR 2019
    • Fri 26
    • -8C -6C
    • Sat 27 APR 2019
    • Sat 27
    • -8C -3C
    • Sun 28 APR 2019
    • Sun 28
    • 4C 11C
    • Mon 29 APR 2019
    • Mon 29
    • 6C 15C
    • Tue 30 APR 2019
    • Tue 30
    • 5C 21C
    • Wed 01 MAY 2019
    • Wed 01
    • 9C 23C
    • Thu 02 MAY 2019
    • Thu 02
    • 10C 21C
    • Fri 03 MAY 2019
    • Fri 03
    • 10C 22C
    • Sat 04 MAY 2019
    • Sat 04
    • 9C 21C
    • Sun 05 MAY 2019
    • Sun 05
    • 10C 23C

Date:

Time Type 0°C level Temp Chill Snow Cloud Speed Gust Dir Press
3:00 1666m -6°C -6_7 0cm 3% 7mph 8mph 1029mB
6:00 1894m -6°C -6_8 0cm 2% 8mph 9mph 1029mB
9:00 2654m -3°C -3_8 0cm 0% 8mph 9mph 1026mB
12:00 2820m 3°C 3_8 0cm 0% 8mph 9mph 1025mB
15:00 2877m 3°C 3_8 0cm 0% 8mph 9mph 1024mB
18:00 2262m 3°C 3_8 0cm 0% 8mph 9mph 1024mB
21:00 1908m -4°C -4_9 0cm 0% 9mph 10mph 1026mB
0:00 1927m -4°C -4_9 0cm 47% 9mph 10mph 1026mB
3:00 1912m -4°C -4_9 0cm 100% 9mph 10mph 1024mB
6:00 2133m -4°C -4_8 0cm 100% 8mph 9mph 1023mB
9:00 2742m -2°C -2_8 0cm 100% 8mph 9mph 1020mB
12:00 2923m 4°C 4_9 0cm 100% 9mph 10mph 1018mB
15:00 2963m 5°C 5_8 0cm 100% 8mph 9mph 1017mB
18:00 2724m 5°C 5_8 0cm 100% 8mph 9mph 1016mB
21:00 2230m -2°C -2_9 0cm 100% 9mph 10mph 1018mB
0:00 2032m -3°C -3_10 0cm 100% 10mph 10mph 1017mB
3:00 1990m -4°C -4_10 0cm 100% 10mph 10mph 1016mB
6:00 2331m -4°C -4_10 0cm 100% 10mph 12mph 1013mB
9:00 2744m -1°C -1_11 0cm 100% 11mph 13mph 1010mB
12:00 2913m 5°C 5_12 0cm 98% 12mph 13mph 1007mB
15:00 2927m 5°C 5_11 0cm 45% 11mph 12mph 1004mB
18:00 2570m 5°C 5_11 0cm 73% 11mph 12mph 1004mB
21:00 2211m -2°C -2_11 0cm 100% 11mph 13mph 1004mB
0:00 2360m -2°C -2_11 1cm 100% 11mph 13mph 1003mB
3:00 2321m -1°C -1_9 1cm 100% 9mph 11mph 1001mB
6:00 2383m -2°C -2_8 1cm 100% 8mph 10mph 1000mB
9:00 2656m -1°C -1_8 1cm 100% 8mph 9mph 1000mB
12:00 2768m 3°C 3_8 1cm 100% 8mph 9mph 999mB
15:00 2766m 3°C 3_8 2cm 100% 8mph 9mph 999mB
18:00 2711m 3°C 3_7 2cm 100% 7mph 8mph 1000mB
21:00 2605m 0°C 0_8 2cm 100% 8mph 9mph 1003mB
0:00 2619m 0°C 0_7 3cm 100% 7mph 8mph 1005mB
3:00 2592m 0°C 0_8 2cm 100% 8mph 9mph 1006mB
6:00 2610m 0°C 0_10 4cm 100% 10mph 12mph 1007mB
9:00 2685m 0°C 0_12 1cm 100% 12mph 15mph 1007mB
12:00 2755m 3°C 3_13 1cm 100% 13mph 15mph 1007mB
15:00 2749m 3°C 3_11 1cm 100% 11mph 14mph 1007mB
18:00 2627m 3°C 3_9 1cm 100% 9mph 10mph 1009mB
21:00 2600m 0°C 0_9 6cm 100% 9mph 11mph 1011mB
0:00 2620m 0°C 0_9 6cm 100% 9mph 12mph 1012mB
3:00 2628m 0°C 0_9 4cm 100% 9mph 11mph 1012mB
6:00 2608m 0°C 0_11 7cm 100% 11mph 14mph 1012mB
9:00 2680m 0°C 0_11 1cm 100% 11mph 14mph 1011mB
12:00 2678m 2°C 2_12 1cm 100% 12mph 15mph 1009mB
15:00 2660m 2°C 2_13 1cm 100% 13mph 15mph 1008mB
18:00 2574m 2°C 2_10 1cm 100% 10mph 12mph 1009mB
21:00 2464m -1°C -1_5 5cm 97% 5mph 7mph 1011mB
0:00 2192m -3°C -3_4 7cm 99% 4mph 7mph 1012mB
3:00 1765m -6°C -6_9 10cm 100% 9mph 11mph 1012mB
6:00 1506m -8°C -8_10 9cm 100% 10mph 12mph 1014mB
9:00 1545m -8°C -8_10 6cm 100% 10mph 12mph 1016mB
12:00 1596m -6°C -6_12 5cm 100% 12mph 13mph 1017mB
15:00 1633m -6°C -6_13 4cm 100% 13mph 15mph 1017mB
18:00 1548m -6°C -6_14 4cm 100% 14mph 17mph 1020mB
21:00 1400m -8°C -8_12 2cm 100% 12mph 15mph 1022mB
0:00 1508m -8°C -8_13 2cm 100% 13mph 15mph 1024mB
3:00 1475m -8°C -8_12 2cm 100% 12mph 15mph 1024mB
6:00 1448m -8°C -8_12 2cm 100% 12mph 14mph 1025mB
9:00 1776m -8°C -8_13 1cm 100% 13mph 14mph 1024mB
12:00 1992m -3°C -3_12 1cm 100% 12mph 13mph 1024mB
15:00 1806m 7°C 7_4 0cm 99% 4mph 10mph 1026mB
18:00 1830m 7°C 7_4 0cm 98% 4mph 11mph 1027mB
21:00 1753m 3°C 3_4 0cm 99% 4mph 7mph 1029mB
0:00 1811m 2°C 2_3 0cm 99% 3mph 4mph 1028mB
3:00 1808m 2°C 2_3 0cm 97% 3mph 6mph 1027mB
6:00 1853m 2°C 2_5 0cm 96% 5mph 13mph 1026mB
9:00 2693m 4°C 4_8 0cm 95% 8mph 15mph 1024mB
12:00 2473m 11°C 11_10 0cm 93% 10mph 15mph 1022mB
15:00 2372m 12°C 12_9 0cm 30% 9mph 14mph 1021mB
18:00 2350m 12°C 12_5 0cm 17% 5mph 12mph 1022mB
21:00 3003m 4°C 4_3 0cm 1% 3mph 4mph 1023mB
0:00 3003m 3°C 3_2 0cm 0% 2mph 3mph 1022mB
3:00 2941m 2°C 2_2 0cm 0% 2mph 2mph 1021mB
6:00 2935m 2°C 2_1 0cm 0% 1mph 2mph 1020mB
9:00 2962m 5°C 5_5 0cm 2% 5mph 7mph 1018mB
12:00 2896m 15°C 15_6 0cm 1% 6mph 7mph 1015mB
15:00 2785m 16°C 16_6 0cm 0% 6mph 7mph 1014mB
18:00 2711m 16°C 16_3 0cm 2% 3mph 4mph 1014mB
21:00 2868m 7°C 7_4 0cm 1% 4mph 5mph 1016mB
0:00 2920m 5°C 5_4 0cm 0% 4mph 5mph 1015mB
Afternoon 0mm 0 2934m 21°C 21_2 0cm 1% 2mph 4mph 1010mB
Morning 0mm 0 3030m 9°C 9_6 0cm 8% 6mph 9mph 1010mB
Afternoon 0mm 0 2958m 23°C 23_3 0cm 56% 3mph 6mph 1007mB
Morning 0mm 0 3083m 10°C 10_6 0cm 78% 6mph 10mph 1009mB
Afternoon 0.0260417mm 0 3046m 21°C 21_2 0cm 84% 2mph 3mph 1008mB
Morning 0.0208333mm 0.1875 3028m 11°C 11_6 0cm 72% 6mph 6mph 1011mB
Afternoon 0mm 0 3061m 22°C 22_3 0cm 40% 3mph 3mph 1010mB
Morning 0.380208mm 4.5 3185m 11°C 11_4 0cm 84% 4mph 5mph 1013mB
Afternoon 0mm 0 3240m 21°C 21_6 0cm 37% 6mph 5mph 1011mB
Morning 0mm 0 3266m 11°C 11_5 0cm 14% 5mph 5mph 1012mB
Afternoon 0mm 0 3294m 23°C 23_3 0cm 67% 3mph 3mph 1010mB
Morning 0mm 0 3078m 12°C 12_5 0cm 70% 5mph 8mph 1012mB

16 day outlook at a glance

Forecast issued: 20/04/2019 06:30:29

Chat

Your comments and questions. In a resort? Let us know what it's like!


Characters left 250

For terms and conditions see Readers Comments on the Cookie and privacy policy page.